THOR ABLESTAR DEB, 552

Orbit data source: Space-Track

THOR ABLESTAR DEB, 552 is space debris in LEO originally from a launch on Thu, 29 Jun 1961 UTC launched from the Air Force Eastern Test Range (AFETR). Debris objects in space refer to the collection of defunct objects orbiting the Earth. Examples of debris include non-operational satellites, rocket bodies, and fragments generated from explosions, collisions, or faulty payload assembly.

Loading next visibility...
Identifier
552, 1961-015GM
Orbit
LEO
Country
Flag of USUS
Related business
Manufacturer
Unknown
Mission
Spacecraft
Bus & Motor
Unknown
Mass
Unknown
Launch date (UTC)
1961-06-29 (64 years ago)
Launch vehicle
Unknown
Launch site
Air Force Eastern Test Range (AFETR)
Object type
Payload
Rocket body
Debris
Shape & HBR
Unknown shape, 0.1 m
Radar Cross Section
Small (<0.1 m²)

Expand to show TLE details & history
Last TLE update: 1 day ago

TLE from 1 day ago
0 THOR ABLESTAR DEB
1 00552U 61015GM  25350.79165433  .00001685  00000-0  11639-2 0  9990
2 00552  67.7361 125.8414 0098170 159.0002 201.5164 13.99041863231189
Epoch: 2025-12-16T18:59Z
TLE epoch observation values (Epoch: 2025-12-16T18:59:58.934Z)
Latitude
-0.00002°
Longitude
115.17504°
Altitude
965.815 km
Speed
7.335 km/s
True Right ascension
08h 23m 21s
True Declination
0° 00' 00"
Sunlit
Object was in full shadow at epoch
Visualization orbit readout
Latitude
Unknown
Longitude
Unknown
Altitude
Unknown
Speed
Unknown
Apparent Right ascension
Unknown
Apparent Declination
Unknown
Sunlit
N/A
Visualization observer readout
Local Sidereal Time
17:43:29
Azimuth
Unknown
Elevation
Unknown
Doppler factor
Unknown
Orbital elements
Apogee altitude
966.8 km
Perigee altitude
823.992 km
Semi-major axis
7,273.533 km
Eccentricity
0.00982
Inclination
67.7361°
RAAN
125.8414°
Arg. of periapsis
159.0002°
True anomaly
201.10847°
Mean anomaly
201.5164°
Eccentric anomaly
201.31197°
Mean motion
3.49885 °/min
Orbital period
102.89 mins
BSTAR
0.0011639
Loading maneuver chart data...
Computing Atmospheric mass density...

Documentation

Showing up to 5 results
|